sat.trackr.live / text

‹ back to catalog

STARLINK-2658

NORAD 48473 · 2021-040AX

PAYLOAD ACTIVE UNKNOWN

§ Identity

Operator
Country
US
Launch date
2021-05-09
Launch site
AFETR
Launch vehicle
Mass (kg)
RCS (m²)

Purposes: comms

External: N2YO · Heavens-Above · Gunter

§ Orbital elements

Epoch: 2026-05-24T20:17:48.982848Z

Period
94.01 min
Inclination
53.1592°
Eccentricity
0.0001380
Mean motion
15.31703320 rev/d
Perigee alt
469.8 km
Apogee alt
471.7 km
Semi-major
6,848.9 km
B*
2.8682e-5
RAAN
196.8004°
Arg perigee
76.4263°
Mean anomaly
283.6892°
Rev number
27,816

§ Raw data

STARLINK-26581 48473U 21040AX  26144.84570582  .00000525  00000+0  28682-4 0  99902 48473  53.1592 196.8004 0001380  76.4263 283.6892 15.31703320278168

JSON: /api/v1/satellites/48473 · /tle

For live sub-satellite position, see the globe view (requires WebGL).

§ Visibility from observer

Set your observer location to see the next 7 days of passes ≥ 10°. The values pass through the URL so the page stays shareable.

No JS? Fill the form by hand. The geolocation button needs JavaScript.